sat.trackr.live / text

‹ back to catalog

VSP ROSE

NORAD 59124 · 2024-043AC

PAYLOAD ACTIVE UNKNOWN

§ Identity

Operator
Country
BEL
Launch date
2024-03-04
Launch site
AFWTR
Launch vehicle
Mass (kg)
RCS (m²)

External: N2YO · Heavens-Above · Gunter

§ Orbital elements

Epoch: 2026-09-22T22:25:48.714240Z

Period
94.14 min
Inclination
97.5750°
Eccentricity
0.0008758
Mean motion
15.29595855 rev/d
Perigee alt
471.0 km
Apogee alt
483.0 km
Semi-major
6,855.2 km
B*
1.1259e-4
RAAN
43.9911°
Arg perigee
259.9757°
Mean anomaly
100.0495°
Rev number
14,192

§ Raw data

VSP ROSE1 59124U 24043AC  26265.93459160  .00003152  00000+0  11259-3 0  99932 59124  97.5750  43.9911 0008758 259.9757 100.0495 15.29595855141925

JSON: /api/v1/satellites/59124 · /tle

For live sub-satellite position, see the globe view (requires WebGL).

§ Visibility from observer

Set your observer location to see the next 7 days of passes ≥ 10°. The values pass through the URL so the page stays shareable.

No JS? Fill the form by hand. The geolocation button needs JavaScript.